Flag for U.S.A. Weather past 2 weeks in Helena, Montana, U.S.A.

Now
71 °F

Sunny.


Feels Like: 75 °F
Forecast: 37 / 68 °F
Wind: No wind

Location: Helena Regional Airport

Current Time: Apr 21, 2015 at 5:53:23 PM

Latest Report: Apr 21, 2015 at 4:53 PM


Visibility: 10 mi

Pressure: 29.81 "Hg

Humidity: 20%

Dew point: 28 °F

Location of HelenaLocation

Historic Weather in Helena — Graph

°F

Helena temperature yesterday

Maximum temperature yesterday: 68 °F (at 4:53 PM)
Minimum temperature yesterday: 28 °F (at 5:53 AM)
Average temperature yesterday: 49 °F

Past Weeks' High & Low Weather Summary

 TemperatureHumidityPressure
High72 °F (Apr 13, 3:53 PM)92% (Apr 7, 4:01 AM)30.43 "Hg (Apr 7, 4:01 AM)
Low25 °F (Apr 7, 6:53 AM)8% (Apr 13, 4:53 PM)29.62 "Hg (Apr 14, 5:53 AM)
Average46 °F48%30.04 "Hg
* Reported Apr 6 4:53 PM — Apr 21 4:53 PM, Helena, Weather by CustomWeather, © 2015

Note: Actual official high and low records may vary slightly from our data, if they occured in-between our weather recording intervals... More about our weather records

Advertising

Helena weather history for previous 24 hours

 ConditionsComfort  
Time TempWeatherWind HumidityBarometerVisibility
4:53 PM
Tue, Apr 21
71 °FSunny.No wind20%29.81 "Hg10 mi
3:53 PM72 °FSunny.3 mph19%29.82 "Hg10 mi
2:53 PM69 °FSunny.5 mph21%29.84 "Hg10 mi
1:53 PM68 °FSunny.5 mph22%29.86 "Hg10 mi
12:53 PM65 °FSunny.6 mph27%29.88 "Hg10 mi
11:53 AM61 °FSunny.5 mph30%29.92 "Hg10 mi
10:53 AM55 °FSunny.No wind37%29.93 "Hg10 mi
9:53 AM50 °FPassing clouds.3 mph44%29.93 "Hg10 mi
8:53 AM46 °FPartly sunny.3 mph50%29.93 "Hg10 mi
7:53 AM40 °FSunny.3 mph63%29.94 "Hg10 mi
6:53 AM36 °FClear.5 mph67%29.92 "Hg10 mi
5:53 AM35 °FClear.No wind67%29.90 "Hg10 mi
4:53 AM40 °FClear.No wind55%29.88 "Hg10 mi
3:53 AM43 °FClear.No wind49%29.87 "Hg10 mi
2:53 AM42 °FClear.5 mph51%29.88 "Hg10 mi
1:53 AM45 °FClear.No wind45%29.88 "Hg10 mi
12:53 AM47 °FClear.No wind42%29.87 "Hg10 mi
11:53 PM
Mon, Apr 20
46 °FClear.3 mph46%29.88 "Hg10 mi
10:53 PM52 °FClear.5 mph32%29.87 "Hg10 mi
9:53 PM55 °FClear.9 mph30%29.88 "Hg10 mi
8:53 PM60 °FScattered clouds.5 mph27%29.87 "Hg10 mi
7:53 PM63 °FScattered clouds.6 mph26%29.85 "Hg10 mi
6:53 PM66 °FOvercast.8 mph22%29.85 "Hg10 mi
5:53 PM68 °FPartly sunny.No wind19%29.87 "Hg10 mi
Weather by CustomWeather, © 2015

See weather overviewHow to use our weather pages